Other Public Products
Issued by NWS Grand Forks, ND

Home | Current Version | Previous Version | Graphics & Text | Print | Product List | Glossary On
Versions: 1 2 3 4 5 6 7 8 9 10 11 12 13 14 15 16 17 18 19 20 21 22 23 24 25 26 27 28 29 30 31 32 33 34 35 36 37 38 39 40 41 42 43 44 45 46 47 48 49 50
000
FPUS83 KFGF 301110
OPUFGF
PRAIRIE TO PINES WEATHER ROUNDUP
NATIONAL WEATHER SERVICE EASTERN NORTH DAKOTA/GRAND FORKS ND
600 AM CDT WED JUL 30 2014

 **SATELLITE DATA USED TO AUGMENT SKY COVER AT AUTOMATED STATIONS**
 *****  WEATHER ACROSS EASTERN NORTH DAKOTA  *****

CITY           SKY/WX    TMP DP  RH WIND       PRES   REMARKS
GRAND FORKS    PTCLDY    54  52  93 W6        30.12R
GRAND FORKS AF CLEAR     53  53  99 W3        30.13S
GRAND CITY NWS   N/A     48 N/A N/A MISG        N/A
BUXTON         NOT AVBL
DEVILS LAKE    MOCLDY    55  52  88 CALM      30.14S VSB 1/4
FARGO          CLEAR     54  51  90 CALM      30.13R
WAHPETON ARPT  SUNNY     50  46  87 CALM      30.13S
$$

 *****  WEATHER ACROSS CENTRAL AND WESTERN NORTH DAKOTA  *****

CITY           SKY/WX    TMP DP  RH WIND       PRES   REMARKS
JAMESTOWN      CLEAR     50  48  93 CALM      30.15S
BISMARCK       CLEAR     54  30  40 E3        30.17S
MINOT          PTCLDY    59  56  89 SW3       30.16R
MINOT AFB      CLEAR     56  56 100 W6        30.16R
GARRISON         N/A     54  53  97 N3        30.17S
WILLISTON      CLEAR     55  53  93 NE3       30.18R
DICKINSON      CLEAR     49  48  97 NW3       30.17S FOG
HETTINGER      CLEAR     47  45  93 W3        30.17S FOG
$$

 *****  OTHER OBSERVATIONS NORTHEAST NORTH DAKOTA  *****

CITY           SKY/WX    TMP DP  RH WIND       PRES   REMARKS
WALHALLA         N/A     50  50 100 CALM        N/A
LANGDON        FAIR      45  45 100 S3        30.15S FOG
CAVALIER       FAIR      54  50  87 W3        30.12S
GRAFTON        FAIR      54  52  94 NW3       30.12S
CANDO          FAIR      48  48 100 NW3       30.16S
FORT TOTTEN      N/A     55  51  88 CALM      29.95S
ROLLA          FAIR      54  54 100 W7        30.17S
RUGBY          FOG       48  48 100 CALM      30.16S VSB<1/4
 ***** THE ABOVE OBSERVATIONS ARE NON NWS ARE NOT QUALITY
        CONTROLLED AND MAY MIS-REPORT RAIN FOR SNOW...
$$

 *****  OTHER OBSERVATIONS SOUTHEAST NORTH DAKOTA *****

CITY           SKY/WX    TMP DP  RH WIND       PRES   REMARKS
COOPERSTOWN    NOT AVBL
VALLEY CITY    FAIR      50  50 100 CALM      30.15S
OAKES          NOT AVBL
GWINNER        SUNNY     54  54 100 CALM      30.16R
BUFFALO        NOT AVBL
WYNDMERE       NOT AVBL
 ***** THE ABOVE OBSERVATIONS ARE NON NWS ARE NOT QUALITY
       CONTROLLED AND MAY MIS-REPORT RAIN FOR SNOW...
$$

  *****  WEATHER ACROSS NORTHERN MINNESOTA  *****

CITY           SKY/WX    TMP DP  RH WIND       PRES   REMARKS
FLAG ISLAND    CLEAR     63  57  82 W7        30.05S
WARROAD        PTCLDY    57  54  88 W6        30.09S
ROSEAU         CLEAR     57  52  82 W7        30.10R
HALLOCK        CLEAR     54  52  94 CALM      30.11S
THF RVR FALLS  CLEAR     57  54  88 CALM      30.12R
HALSTAD          N/A     53  52  95 NW3         N/A
FOSSTON        CLEAR     48  46  93 S3        30.13R FOG
BAUDETTE       CLEAR     58  55  90 VRB5      30.08R
WASKISH        CLOUDY    61  57  88 W6        30.08R
CROOKSTON      CLEAR     54  52  94 NW3       30.13R
$$
  *****  WEATHER ACROSS CENTRAL AND WEST MINNESOTA  *****

CITY           SKY/WX    TMP DP  RH WIND       PRES   REMARKS
BEMIDJI        CLEAR     53  51  94 W6        30.11R
PARK RAPIDS    CLEAR     53  51  93 NW3       30.11S
WADENA         CLEAR     55  54  94 CALM      30.12R
DETROIT LAKES  CLEAR     59  54  82 CALM      30.14S
MOORHEAD       CLEAR     55  55 100 CALM      30.14S
FERGUS FALLS   CLEAR     54  52  94 CALM      30.13S
ELBOW LAKE     FAIR      56  53  92 NW5       30.13S
MORRIS MN      CLEAR     52  50  93 NW5       30.12S FOG
STAPLES        CLEAR     54  52  94 CALM      30.11S
WHEATON        CLEAR     54  52  94 CALM      30.15S
$$
  *****  WEATHER ELSEWHERE ACROSS MINNESOTA  *****

CITY           SKY/WX    TMP DP  RH WIND       PRES   REMARKS
DULUTH         MOCLDY    50  47  89 CALM      30.08S FOG
INTRNTL FALLS  PTCLDY    49  48  97 CALM      30.05S
ELY            FOG       50  50 100 CALM      30.07S VSB<1/4
CLOQUET        CLEAR     50  48  93 CALM      30.08S FOG
BRAINERD       CLEAR     52  52 100 CALM      30.10R
HIBBING        FOG       47  45  93 CALM      30.08S VSB 1/4
ALEXANDRIA     CLEAR     59  55  87 NW6       30.14R
SAINT CLOUD    CLEAR     58  54  86 CALM      30.09R
MINNEAPOLIS    PTCLDY    60  56  86 CALM      30.08R
$$

  *****  WEATHER ACROSS SOUTH DAKOTA  *****

CITY           SKY/WX    TMP DP  RH WIND       PRES   REMARKS
SIOUX FALLS    CLEAR     54  51  90 CALM      30.15S
BROOKINGS      NOT AVBL
WATERTOWN      CLEAR     51  49  92 CALM      30.16R
HURON          FOG       49  48  97 W3        30.15S VSB 1/4
SISSETON         N/A     52  51  97 W3        30.13S
ABERDEEN       CLEAR     49  47  93 CALM      30.15S
MITCHELL       CLEAR     52  50  93 CALM      30.16R
PIERRE         MOCLDY    60  59  96 E7        30.14S
MOBRIDGE       CLOUDY    61  56  83 E8        30.13S
RAPID CITY     CLEAR     50  49  96 NW3       30.20S
$$

  *****  SOME WEATHER IN NEARBY STATES *****

CITY           SKY/WX    TMP DP  RH WIND       PRES   REMARKS
GLASGOW MT     CLEAR     59  53  80 S5        30.18R
GREAT FALLS MT CLEAR     65  45  48 S12       30.16S
CHEYENNE WY    LGT RAIN  56  54  93 NE3       30.33S
SCOTTSBLUFF NE CLOUDY    63  58  83 CALM      30.26R
OMAHA NE       PTCLDY    55  53  93 NW5       30.14R
DES MOINES IA  PTCLDY    59  54  83 NW3       30.10R
DAVENPORT IA   PTCLDY    54  52  93 W3        30.06R
CHICAGO IL     MOCLDY    62  54  74 W6        30.02R
EAU CLAIRE WI  CLEAR     52  52 100 CALM      30.07R
LA CROSSE WI   CLEAR     58  56  93 NW5       30.06R
$$

  *****  SOME NATIONAL WEATHER *****

CITY           SKY/WX    TMP DP  RH WIND       PRES   REMARKS
LA GUARDIA NY  PTSUNNY   65  52  62 NE3       30.01R
RALEIGH NC     PTCLDY    64  59  83 NE6       30.06R
ATLANTA GA     PTCLDY    60  53  77 N6        30.04R
NEW ORLEANS LA PTCLDY    75  63  66 NE9       30.05R
OKLAHOMA CITY  LGT RAIN  70  65  84 S6        30.07S
ALBUQUERQUE NM PTCLDY    67  59  75 NE3       30.19F
SALT LAKE CITY MOCLDY    65  64  97 CALM      30.16S
LOS ANGELES CA MOCLDY    69  61  75 CALM      29.94F
BOISE ID       MOCLDY    76  51  41 SE7       30.09F
SEATTLE WA     CLEAR     58  54  86 S3        30.13R
$$

*** WEATHER ACROSS MANITOBA...SASKATCHEWAN AND ONTARIO ***
                ***ONTARIO***

CITY           SKY/WX    TMP DP  RH WIND       PRES   REMARKS
GERALDTON      CLOUDY    52  52 100 W7        29.95F
THUNDER BAY    PTCLDY    45  45 100 SW5       30.03S
SIOUX LOOKOUT  PTCLDY    46  46 100 CALM      30.02S
TORONTO        MOCLDY    57  54  88 W6        29.95R
BIG TROUT LK   CLEAR     50  46  87 N7        29.99S
PICKLE LAKE    MOCLDY    54  48  82 W6        29.99
DRYDEN         PTCLDY    57  55  94 SW6       30.03S
KENORA         MOCLDY    61  52  72 NW8       30.06S
$$
                *** MANITOBA***

CITY           SKY/WX    TMP DP  RH WIND       PRES   REMARKS
BRANDON        PTCLDY    50  48  93 NW6       30.15R
DAUPHIN        CLEAR     57  54  88 W10       30.12R
ISLAND LAKE    MOCLDY    54  52  94 CALM      30.06S
PILOT MOUND      N/A     48  48 100 W2          N/A
THE PAS        MOCLDY    63  57  82 W3        30.07S
THOMPSON       PTCLDY    48  48 100 W2        30.08R FOG
WINNIPEG       PTCLDY    52  50  93 W8        30.11R
LYNN LAKE      CLEAR     57  52  82 W5        30.08S
CHURCHILL      PTCLDY    50  48  93 SE7       30.09S
GILLAM         CLEAR     46  46 100 CALM      30.07R
$$
                ***SASKATCHEWAN***

CITY           SKY/WX    TMP DP  RH WIND       PRES   REMARKS
ESTEVAN        PTCLDY    52  50  93 NW2       30.19R
KINDERSLEY     PTCLDY    61  55  82 S12       30.09F
LLOYDMINSTER   CLEAR     61  57  88 E7        30.08S
PRINCE ALBERT  CLOUDY    61  59  94 SE3       30.17R
REGINA         PTCLDY    55  54  94 E5        30.19S
YORKTON        CLEAR     57  54  88 W5        30.17R


USA.gov is the U.S. government's official web portal to all federal, state and local government web resources and services.